FW4027 Weather Reports


Display with metric or nautical units.
time (UTC)temp
F
wind
direction
speed
MPH
gust
MPH
rain 1hr
in
rain 24hr
in
rain mn
in
humidity
%
barometer
mb
20260506233944 57 313 3.0 5.0 0.00 0.00 0.00 63 1016.7
20260506233445 57 0 3.0 5.0 0.00 0.00 0.00 63 1016.8
20260506233210 57 317 2.0 3.0 0.00 0.00 0.00 63 1016.9
20260506232444 57 321 3.0 3.0 0.00 0.00 0.00 63 1016.9
20260506231944 58 327 2.0 3.0 0.00 0.00 0.00 63 1016.9
20260506231444 57 316 0.0 0.0 0.00 0.00 0.00 63 1017.0
20260506230943 57 316 0.0 0.0 0.00 0.00 0.00 63 1017.0
20260506230444 58 316 0.0 2.0 0.00 0.00 0.00 63 1017.0
20260506225944 58 316 0.0 3.0 0.00 0.00 0.00 63 1017.0
20260506225443 58 316 2.0 3.0 0.00 0.00 0.00 63 1017.0
20260506224944 58 0 1.0 3.0 0.00 0.00 0.00 63 1017.2
20260506224445 58 290 2.0 3.0 0.00 0.00 0.00 63 1017.1
20260506223943 58 172 0.0 2.0 0.00 0.00 0.00 63 1017.3
20260506223444 58 172 1.0 2.0 0.00 0.00 0.00 63 1017.3
20260506222943 57 172 0.0 0.0 0.00 0.00 0.00 63 1017.3
20260506222442 57 172 0.0 0.0 0.00 0.00 0.00 63 1017.3
20260506221944 58 172 0.0 0.0 0.00 0.00 0.00 63 1017.3
20260506221441 58 172 0.0 0.0 0.00 0.00 0.00 63 1017.4
20260506220941 58 172 0.0 0.0 0.00 0.00 0.00 63 1017.5
20260506220440 58 171 0.0 0.0 0.00 0.00 0.00 63 1017.5
20260506215941 58 171 0.0 0.0 0.00 0.00 0.00 63 1017.4
20260506215441 58 172 0.0 0.0 0.00 0.00 0.00 63 1017.4
20260506214940 58 172 0.0 0.0 0.00 0.00 0.00 63 1017.4
20260506214709 58 172 0.0 0.0 0.00 0.00 0.00 63 1017.4
20260506213941 58 172 0.0 0.0 0.00 0.00 0.00 63 1017.5
20260506213440 58 172 0.0 0.0 0.00 0.00 0.00 62 1017.4
20260506212939 58 172 0.0 0.0 0.00 0.00 0.00 62 1017.5
20260506212440 59 172 0.0 0.0 0.00 0.00 0.00 63 1017.5
20260506212207 59 172 0.0 0.0 0.00 0.00 0.00 63 1017.6
20260506211440 59 171 0.0 0.0 0.00 0.00 0.00 63 1017.6
20260506210939 59 171 0.0 0.0 0.00 0.00 0.00 63 1017.5
20260506210440 59 171 0.0 0.0 0.00 0.00 0.00 63 1017.5
20260506205940 59 171 0.0 0.0 0.00 0.00 0.00 62 1017.6
20260506205439 59 171 0.0 0.0 0.00 0.00 0.00 62 1017.6
20260506204940 59 171 0.0 0.0 0.00 0.00 0.00 62 1017.5
20260506204439 59 171 0.0 0.0 0.00 0.00 0.00 62 1017.6
20260506203939 59 171 0.0 0.0 0.00 0.00 0.00 62 1017.5
20260506203700 60 171 0.0 0.0 0.00 0.00 0.00 62 1017.5
20260506203207 60 171 0.0 0.0 0.00 0.00 0.00 62 1017.4
20260506202441 60 171 0.0 0.0 0.00 0.00 0.00 62 1017.5
20260506202436 60 171 0.0 0.0 0.00 0.00 0.00 62 1017.4
20260506201440 60 171 0.0 0.0 0.00 0.00 0.00 62 1017.5
20260506200938 60 171 0.0 0.0 0.00 0.00 0.00 62 1017.4
20260506200437 60 171 0.0 0.0 0.00 0.00 0.00 62 1017.3
20260506195938 61 171 0.0 0.0 0.00 0.00 0.00 62 1017.4
20260506195437 61 171 0.0 1.0 0.00 0.00 0.00 62 1017.2
20260506195203 62 171 0.0 2.0 0.00 0.00 0.00 62 1017.3
20260506194439 62 171 1.0 2.0 0.00 0.00 0.00 62 1017.3
20260506193939 62 171 0.0 3.0 0.00 0.00 0.00 62 1017.2
20260506193437 62 169 1.0 3.0 0.00 0.00 0.00 62 1017.2
20260506192938 62 172 0.0 3.0 0.00 0.00 0.00 62 1017.2
20260506192436 63 171 1.0 3.0 0.00 0.00 0.00 62 1017.3
20260506191937 62 171 0.0 1.0 0.00 0.00 0.00 62 1017.2
20260506191436 63 172 0.0 1.0 0.00 0.00 0.00 62 1017.1
20260506190936 63 172 0.0 0.0 0.00 0.00 0.00 61 1017.1
20260506190437 64 172 0.0 0.0 0.00 0.00 0.00 62 1017.0
20260506185936 64 172 0.0 2.0 0.00 0.00 0.00 62 1017.0
20260506185437 64 172 0.0 3.0 0.00 0.00 0.00 61 1016.9
20260506184936 65 188 0.0 3.0 0.00 0.00 0.00 61 1016.9
20260506184436 65 0 0.0 2.0 0.00 0.00 0.00 61 1016.7
20260506183933 65 179 0.0 2.0 0.00 0.00 0.00 61 1016.7
20260506183433 65 179 1.0 4.0 0.00 0.00 0.00 61 1016.6
20260506182932 65 185 1.0 4.0 0.00 0.00 0.00 61 1016.5
20260506182433 65 185 2.0 4.0 0.00 0.00 0.00 61 1016.4
20260506181933 65 175 1.0 3.0 0.00 0.00 0.00 60 1016.4
20260506181432 66 171 0.0 4.0 0.00 0.00 0.00 60 1016.3
20260506181420 66 172 1.0 4.0 0.00 0.00 0.00 59 1016.2
20260506180653 66 190 1.0 3.0 0.00 0.00 0.00 59 1016.1
20260506175933 66 192 0.0 4.0 0.00 0.00 0.00 59 1016.1
20260506175432 67 196 2.0 5.0 0.00 0.00 0.00 59 1016.0
20260506174934 67 221 1.0 5.0 0.00 0.00 0.00 59 1016.0
20260506174704 67 230 1.0 3.0 0.00 0.00 0.00 58 1016.0
20260506173909 67 189 0.0 3.0 0.00 0.00 0.00 58 1015.8
20260506173634 67 192 2.0 3.0 0.00 0.00 0.00 58 1015.9
20260506172905 67 190 1.0 3.0 0.00 0.00 0.00 57 1015.9
20260506172405 66 202 1.0 3.0 0.00 0.00 0.00 57 1015.9
20260506171906 66 203 1.0 4.0 0.00 0.00 0.00 56 1015.9
20260506171405 66 230 1.0 5.0 0.00 0.00 0.00 56 1015.8
20260506170858 67 214 4.0 6.0 0.00 0.00 0.00 55 1015.8
20260506170358 67 244 5.0 6.0 0.00 0.00 0.00 55 1015.8
20260506170115 67 0 4.0 6.0 0.00 0.00 0.00 54 1015.9
20260506165353 67 0 3.0 5.0 0.00 0.00 0.00 53 1015.8
20260506165114 67 210 1.0 5.0 0.00 0.00 0.00 52 1015.9
20260506164620 67 223 3.0 5.0 0.00 0.00 0.00 51 1015.9
20260506163852 68 0 2.0 5.0 0.00 0.00 0.00 50 1016.0
20260506163350 67 219 2.0 5.0 0.00 0.00 0.00 48 1016.0
20260506162851 67 203 3.0 5.0 0.00 0.00 0.00 48 1016.0
20260506162351 68 0 4.0 5.0 0.00 0.00 0.00 49 1016.0
20260506161851 68 214 1.0 4.0 0.00 0.00 0.00 50 1015.9
20260506161351 68 195 1.0 5.0 0.00 0.00 0.00 50 1016.0
20260506160847 68 228 2.0 6.0 0.00 0.00 0.00 50 1016.0
20260506160347 69 224 3.0 6.0 0.00 0.00 0.00 49 1016.0
20260506155847 69 203 3.0 6.0 0.00 0.00 0.00 49 1015.9
20260506155348 69 0 2.0 6.0 0.00 0.00 0.00 48 1016.0
20260506154848 69 228 3.0 6.0 0.00 0.00 0.00 50 1016.0
20260506154344 70 0 2.0 6.0 0.00 0.00 0.00 51 1016.1
20260506153843 70 212 3.0 6.0 0.00 0.00 0.00 52 1016.1
20260506153613 70 0 4.0 7.0 0.00 0.00 0.00 53 1016.1
20260506153602 70 223 4.0 7.0 0.00 0.00 0.00 52 1016.1
20260506152344 70 178 4.0 7.0 0.00 0.00 0.00 53 1016.2
20260506151844 70 0 4.0 9.0 0.00 0.00 0.00 52 1016.2
20260506151343 70 272 3.0 9.0 0.00 0.00 0.00 52 1016.2
20260506150841 71 0 3.0 10.0 0.00 0.00 0.00 52 1016.2
20260506150342 71 226 5.0 10.0 0.00 0.00 0.00 52 1016.3
20260506145841 71 193 3.0 9.0 0.00 0.00 0.00 51 1016.2
20260506145337 71 189 3.0 9.0 0.00 0.00 0.00 50 1016.3
20260506145101 71 172 4.0 11.0 0.00 0.00 0.00 50 1016.3
20260506144337 72 189 4.0 11.0 0.00 0.00 0.00 48 1016.3
20260506143835 72 226 4.0 9.0 0.00 0.00 0.00 47 1016.3
20260506143336 72 173 5.0 9.0 0.00 0.00 0.00 47 1016.4
20260506142836 72 0 5.0 9.0 0.00 0.00 0.00 48 1016.4
20260506142333 72 305 4.0 9.0 0.00 0.00 0.00 49 1016.4
20260506141833 71 175 3.0 11.0 0.00 0.00 0.00 50 1016.5
20260506141333 71 196 5.0 11.0 0.00 0.00 0.00 48 1016.5
20260506140833 71 0 4.0 10.0 0.00 0.00 0.00 48 1016.4
20260506140331 72 0 3.0 10.0 0.00 0.00 0.00 49 1016.4
20260506140311 71 171 3.0 10.0 0.00 0.00 0.00 49 1016.5
20260506135331 71 0 6.0 11.0 0.00 0.00 0.00 49 1016.5
20260506134831 71 204 4.0 11.0 0.00 0.00 0.00 49 1016.5
20260506134333 71 0 6.0 11.0 0.00 0.00 0.00 48 1016.6
20260506133831 71 0 5.0 10.0 0.00 0.00 0.00 48 1016.7
20260506133330 71 0 5.0 10.0 0.00 0.00 0.00 47 1016.6
20260506132830 71 0 6.0 9.0 0.00 0.00 0.00 47 1016.6
20260506132332 71 0 6.0 11.0 0.00 0.00 0.00 46 1016.6
20260506132054 71 141 5.0 11.0 0.00 0.00 0.00 47 1016.6
20260506131330 71 0 5.0 11.0 0.00 0.00 0.00 46 1016.6
20260506131051 71 0 5.0 9.0 0.00 0.00 0.00 47 1016.7
20260506130815 71 0 6.0 10.0 0.00 0.00 0.00 47 1016.6
20260506125829 71 197 6.0 11.0 0.00 0.00 0.00 46 1016.6
20260506125548 71 0 6.0 11.0 0.00 0.00 0.00 46 1016.7
20260506124826 70 0 7.0 10.0 0.00 0.00 0.00 46 1016.7
20260506124327 70 0 6.0 11.0 0.00 0.00 0.00 46 1016.7
20260506124312 70 155 7.0 12.0 0.00 0.00 0.00 46 1016.8
20260506123323 70 0 7.0 12.0 0.00 0.00 0.00 46 1016.8
20260506122824 70 0 8.0 12.0 0.00 0.00 0.00 45 1016.8
20260506122322 70 0 7.0 12.0 0.00 0.00 0.00 46 1016.9
20260506121823 70 134 8.0 12.0 0.00 0.00 0.00 45 1016.9
20260506121321 70 0 7.0 11.0 0.00 0.00 0.00 46 1017.0
20260506120819 70 0 8.0 13.0 0.00 0.00 0.00 48 1017.0
20260506120540 70 0 9.0 13.0 0.00 0.00 0.00 47 1017.1
20260506115820 70 0 7.0 12.0 0.00 0.00 0.00 49 1017.1
20260506115318 70 0 6.0 13.0 0.00 0.00 0.00 49 1017.1
20260506114818 70 0 7.0 13.0 0.00 0.00 0.00 49 1017.2
20260506114542 70 0 6.0 12.0 0.00 0.00 0.00 51 1017.2
20260506113815 70 196 8.0 12.0 0.00 0.00 0.00 50 1017.3
20260506113315 70 0 8.0 13.0 0.00 0.00 0.00 52 1017.2
20260506112815 70 0 7.0 13.0 0.00 0.00 0.00 52 1017.2
20260506112806 70 0 6.0 12.0 0.00 0.00 0.00 53 1017.2
20260506111815 71 0 7.0 14.0 0.00 0.00 0.00 54 1017.2
20260506111315 70 219 7.0 14.0 0.00 0.00 0.00 54 1017.1
20260506110813 70 0 6.0 14.0 0.00 0.00 0.00 53 1017.2
20260506110313 71 0 7.0 14.0 0.00 0.00 0.00 53 1017.2
20260506105812 71 0 6.0 12.0 0.00 0.00 0.00 53 1017.1
20260506105309 71 251 5.0 12.0 0.00 0.00 0.00 52 1017.1
20260506105042 70 0 5.0 12.0 0.00 0.00 0.00 52 1017.1
20260506104311 70 0 7.0 12.0 0.00 0.00 0.00 50 1017.2
20260506104038 70 155 5.0 11.0 0.00 0.00 0.00 51 1017.1
20260506103311 70 0 5.0 10.0 0.00 0.00 0.00 51 1017.2
20260506103031 70 0 5.0 12.0 0.00 0.00 0.00 52 1017.2
20260506102306 70 171 7.0 12.0 0.00 0.00 0.00 49 1017.2
20260506101805 70 0 8.0 13.0 0.00 0.00 0.00 46 1017.3
20260506101311 70 0 8.0 14.0 0.00 0.00 0.00 50 1017.3
20260506101307 70 0 6.0 14.0 0.00 0.00 0.00 51 1017.3
20260506100309 70 185 8.0 14.0 0.00 0.00 0.00 49 1017.2
20260506095805 69 0 8.0 14.0 0.00 0.00 0.00 51 1017.2
20260506095307 69 164 7.0 15.0 0.00 0.00 0.00 50 1017.1
20260506094806 69 0 10.0 15.0 0.00 0.00 0.00 50 1017.1
20260506094305 69 175 9.0 15.0 0.00 0.00 0.00 52 1017.2
20260506093805 70 179 9.0 15.0 0.00 0.00 0.00 51 1017.2
20260506093526 70 190 9.0 16.0 0.00 0.00 0.00 49 1017.2
20260506092803 70 0 6.0 16.0 0.00 0.00 0.00 49 1017.2
20260506092300 70 0 8.0 15.0 0.00 0.00 0.00 50 1017.0
20260506092242 70 0 8.0 15.0 0.00 0.00 0.00 49 1017.1
20260506091300 70 0 7.0 13.0 0.00 0.00 0.00 48 1017.2
20260506090755 71 0 6.0 13.0 0.00 0.00 0.00 49 1017.0
20260506090255 70 0 5.0 11.0 0.00 0.00 0.00 48 1017.0
20260506085755 71 173 5.0 16.0 0.00 0.00 0.00 48 1016.9
20260506085253 70 168 5.0 16.0 0.00 0.00 0.00 47 1017.0
20260506084756 70 230 4.0 12.0 0.00 0.00 0.00 51 1017.0
20260506084255 70 164 5.0 13.0 0.00 0.00 0.00 50 1017.0
20260506084018 70 0 6.0 13.0 0.00 0.00 0.00 52 1017.0
20260506083743 69 0 6.0 13.0 0.00 0.00 0.00 49 1016.9
20260506082738 69 219 7.0 13.0 0.00 0.00 0.00 50 1016.9
20260506082237 69 0 6.0 13.0 0.00 0.00 0.00 52 1016.9
20260506082029 69 169 6.0 14.0 0.00 0.00 0.00 52 1016.8
20260506082024 69 213 7.0 14.0 0.00 0.00 0.00 51 1017.0
20260506082020 69 0 6.0 14.0 0.00 0.00 0.00 53 1016.9
20260506081339 69 169 6.0 14.0 0.00 0.00 0.00 52 1016.8
20260506081256 69 0 6.0 14.0 0.00 0.00 0.00 53 1016.9
20260506081112 69 169 6.0 14.0 0.00 0.00 0.00 52 1016.8
20260506080841 69 169 6.0 14.0 0.00 0.00 0.00 52 1016.8
20260506080234 69 165 6.0 11.0 0.00 0.00 0.00 53 1016.8
20260506073229 68 175 4.0 11.0 0.00 0.00 0.00 53 1016.7
20260506072727 67 0 6.0 14.0 0.00 0.00 0.00 54 1016.6
20260506072224 67 0 7.0 14.0 0.00 0.00 0.00 55 1016.6
20260506071722 67 183 4.0 11.0 0.00 0.00 0.00 56 1016.5
20260506071222 67 0 5.0 11.0 0.00 0.00 0.00 57 1016.5
20260506070733 66 0 5.0 10.0 0.00 0.00 0.00 58 1016.5
20260506070222 67 0 6.0 9.0 0.00 0.00 0.00 58 1016.5
20260506062221 66 0 3.0 6.0 0.00 0.00 0.00 58 1016.4
20260506061941 66 0 4.0 6.0 0.00 0.00 0.00 58 1016.3
20260506061220 66 206 3.0 6.0 0.00 0.00 0.00 58 1016.3
20260506060721 67 206 4.0 6.0 0.00 0.00 0.00 58 1016.3
20260506060221 67 0 3.0 6.0 0.00 0.00 0.00 58 1016.2
20260506051219 63 120 2.0 3.0 0.00 0.00 0.00 47 1016.1
20260506050719 62 116 2.0 3.0 0.00 0.00 0.00 48 1016.0
20260506050219 61 107 2.0 3.0 0.00 0.00 0.00 50 1016.0
20260506044718 58 312 1.0 3.0 0.00 0.00 0.00 52 1015.9
20260506044218 57 313 2.0 3.0 0.00 0.00 0.00 52 1015.8
20260506043719 57 32 0.0 2.0 0.00 0.00 0.00 53 1015.7
20260506043218 56 32 1.0 2.0 0.00 0.00 0.00 53 1015.7
20260506042718 55 319 1.0 3.0 0.00 0.00 0.00 53 1015.7
20260506042219 55 299 0.0 4.0 0.00 0.00 0.00 53 1015.6
20260506041717 54 299 3.0 4.0 0.00 0.00 0.00 54 1015.5
20260506041218 54 0 0.0 3.0 0.00 0.00 0.00 54 1015.6
20260506040951 53 0 3.0 4.0 0.00 0.00 0.00 55 1015.5
20260506040217 53 296 2.0 4.0 0.00 0.00 0.00 54 1015.5
20260506035941 53 309 2.0 4.0 0.00 0.00 0.00 53 1015.4
20260506035705 53 314 3.0 4.0 0.00 0.00 0.00 54 1015.5
20260506034719 52 0 3.0 4.0 0.00 0.00 0.00 54 1015.5
20260506034218 52 312 2.0 4.0 0.00 0.00 0.00 54 1015.6
20260506033718 52 0 3.0 4.0 0.00 0.00 0.00 54 1015.5
20260506033217 52 0 3.0 5.0 0.00 0.00 0.00 55 1015.5
20260506032717 52 0 2.0 5.0 0.00 0.00 0.00 54 1015.4
20260506032217 52 0 4.0 5.0 0.00 0.00 0.00 53 1015.5
20260506031716 52 309 3.0 5.0 0.00 0.00 0.00 53 1015.5
20260506031216 52 0 3.0 5.0 0.00 0.00 0.00 53 1015.4
20260506030716 52 0 4.0 5.0 0.00 0.00 0.00 53 1015.3
20260506030447 53 0 4.0 5.0 0.00 0.00 0.00 52 1015.3
20260506025716 53 0 0.0 4.0 0.00 0.00 0.00 52 1015.3
20260506025215 53 329 2.0 5.0 0.00 0.00 0.00 53 1015.3
20260506024717 53 324 4.0 5.0 0.00 0.00 0.00 53 1015.3
20260506024216 53 0 4.0 5.0 0.00 0.00 0.00 52 1015.2
20260506023716 53 0 4.0 5.0 0.00 0.00 0.00 53 1015.3
20260506023216 53 316 3.0 5.0 0.00 0.00 0.00 53 1015.3
20260506022717 53 313 4.0 6.0 0.00 0.00 0.00 53 1015.3
20260506022216 53 353 4.0 6.0 0.00 0.00 0.00 54 1015.4
20260506021717 53 357 3.0 5.0 0.00 0.00 0.00 53 1015.4
20260506021215 53 0 4.0 5.0 0.00 0.00 0.00 53 1015.3
20260506020717 53 0 4.0 5.0 0.00 0.00 0.00 53 1015.3
20260506020214 52 0 4.0 4.0 0.00 0.00 0.00 54 1015.3
20260506015715 53 309 4.0 4.0 0.00 0.00 0.00 53 1015.4
20260506015214 53 0 3.0 5.0 0.00 0.00 0.00 53 1015.3
20260506014714 53 341 2.0 5.0 0.00 0.00 0.00 53 1015.3
20260506014216 53 0 2.0 5.0 0.00 0.00 0.00 53 1015.4
20260506013714 53 0 5.0 5.0 0.00 0.00 0.00 53 1015.4
20260506013214 53 0 4.0 5.0 0.00 0.00 0.00 53 1015.3
20260506012713 53 0 4.0 5.0 0.00 0.00 0.00 53 1015.3
20260506012214 53 0 4.0 5.0 0.00 0.00 0.00 53 1015.4
20260506011715 53 0 4.0 5.0 0.00 0.00 0.00 53 1015.4
20260506011215 53 0 4.0 5.0 0.00 0.00 0.00 53 1015.4
20260506010713 53 0 4.0 6.0 0.00 0.00 0.00 53 1015.4
20260506010215 53 314 4.0 6.0 0.00 0.00 0.00 53 1015.3
20260506005713 53 0 4.0 5.0 0.00 0.00 0.00 53 1015.4
20260506005213 53 0 3.0 5.0 0.00 0.00 0.00 53 1015.3
20260506004713 53 0 4.0 5.0 0.00 0.00 0.00 53 1015.3
20260506004212 53 0 4.0 4.0 0.00 0.00 0.00 52 1015.3
20260506003930 53 0 4.0 4.0 0.00 0.00 0.00 52 1015.3
20260506003211 54 316 3.0 5.0 0.00 0.00 0.00 51 1015.3
20260506002711 54 312 3.0 5.0 0.00 0.00 0.00 51 1015.2
20260506002209 54 303 4.0 5.0 0.00 0.00 0.00 51 1015.2
20260506001708 54 300 4.0 5.0 0.00 0.00 0.00 51 1015.2
20260506001437 53 0 3.0 5.0 0.00 0.00 0.00 52 1015.2
20260506000708 53 0 4.0 5.0 0.00 0.00 0.00 51 1015.2
20260506000207 53 0 3.0 4.0 0.00 0.00 0.00 51 1015.2
20260505235707 54 320 3.0 4.0 0.00 0.00 0.00 50 1015.3
20260505235206 54 0 3.0 4.0 0.00 0.00 0.00 50 1015.3
20260505234705 54 0 2.0 4.0 0.00 0.00 0.00 49 1015.5